This demonstration page uses our WeatherBlox Daily Observations layout. Learn more.

Left ArrowRight Arrow

36.17497, -115.13722

Hourly Observations for September 27, 2016

Temp ( °F °C ) Dew Point ( °F °C ) Humidity (%) Winds ( mph kmh ) Pressure ( in mb ) Visibility ( mi km ) Precip ( " mm )
12:53 am 00:53 Clear 76 24.4 32 0 20 20 N 9 15 29.99 1016 10 16.0934 0 0
1:53 am 01:53 Clear 74 23.3 32 0 21 21 N 8 13 29.99 1016 10 16.0934 0 0
2:53 am 02:53 Clear 74 23.3 31 -0.6 20 20 NNW 5 7 29.98 1015 10 16.0934 0 0
3:53 am 03:53 Clear 69 20.6 33 0.6 26 26 SE 5 7 30 1016 10 16.0934 0 0
4:53 am 04:53 Clear 70 21.1 32 0 25 25 N 6 9 30 1016 10 16.0934 0 0
5:53 am 05:53 Clear 68 20 36 2.2 31 31 W 5 7 30 1016 10 16.0934 0 0
6:53 am 06:53 Sunny 68 20 35 1.7 30 30 Calm 30.02 1017 10 16.0934 0 0
7:53 am 07:53 Sunny 73 22.8 35 1.7 25 25 WNW 3 6 30.03 1017 10 16.0934 0 0
8:53 am 08:53 Sunny 79 26.1 35 1.7 20 20 Calm 30.04 1017 10 16.0934 0 0
9:53 am 09:53 Sunny 80 26.7 36 2.2 20 20 ESE 6 9 30.05 1018 10 16.0934 0 0
10:53 am 10:53 Sunny 84 28.9 35 1.7 17 17 ENE 7 11 30.03 1017 10 16.0934 0 0
11:53 am 11:53 Sunny 86 30 36 2.2 17 17 SSE 9 15 30.01 1016 10 16.0934 0 0
12:53 pm 12:53 Sunny 87 30.6 36 2.2 16 16 S 8 13 29.98 1015 10 16.0934 0 0
1:53 pm 13:53 Sunny 89 31.7 35 1.7 15 15 SSE 15 24 29.96 1014 10 16.0934 0 0
2:53 pm 14:53 Sunny 89 31.7 35 1.7 15 15 S 7 11 29.94 1014 10 16.0934 0 0
3:53 pm 15:53 Sunny 89 31.7 37 2.8 16 16 SSE 7 11 29.93 1014 10 16.0934 0 0
4:53 pm 16:53 Sunny 88 31.1 38 3.3 17 17 SSE 9 15 29.92 1013 10 16.0934 0 0
5:53 pm 17:53 Sunny 87 30.6 38 3.3 18 18 SSE 6 9 29.92 1013 10 16.0934 0 0
6:53 pm 18:53 Mostly Clear 86 30 39 3.9 19 19 S 3 6 29.92 1013 10 16.0934 0 0
7:53 pm 19:53 Clear 85 29.4 42 5.6 22 22 Calm 29.92 1013 10 16.0934 0 0
8:53 pm 20:53 Clear 84 28.9 43 6.1 24 24 SW 3 6 29.93 1014 10 16.0934 0 0
9:53 pm 21:53 Mostly Cloudy 82 27.8 43 6.1 25 25 NNE 3 6 29.93 1014 10 16.0934 0 0
10:53 pm 22:53 Clear 79 26.1 42 5.6 27 27 ESE 3 6 29.94 1014 10 16.0934 0 0
11:53 pm 23:53 Clear 76 24.4 43 6.1 31 31 ESE 5 7 29.94 1014 10 16.0934 0 0

Powered by AerisWeather